CW8633 Weather Reports


Display with metric or nautical units.
time (UTC)temp
F
wind
direction
speed
MPH
gust
MPH
rain 1hr
in
rain 24hr
in
rain mn
in
humidity
%
barometer
mb
20260904012612 78 218 1.0 2.0 0.00 0.00 0.00 22 1009.0
20260904011625 79 219 2.0 4.0 0.00 0.00 0.00 20 1009.2
20260904010616 79 243 2.0 7.0 0.00 0.00 0.00 20 1009.3
20260904005636 80 245 4.0 7.0 0.00 0.00 0.00 20 1009.3
20260904004622 80 259 4.0 7.0 0.00 0.00 0.00 19 1009.4
20260904003617 81 261 3.0 10.0 0.00 0.00 0.00 19 1009.4
20260904002616 81 240 3.0 9.0 0.00 0.00 0.00 20 1009.4
20260904001627 81 259 4.0 9.0 0.00 0.00 0.00 18 1009.5
20260904000617 81 272 4.0 9.0 0.00 0.00 0.00 18 1009.4
20260903235618 81 215 5.0 9.0 0.00 0.00 0.00 18 1009.4
20260903234614 81 211 5.0 10.0 0.00 0.00 0.00 18 1009.5
20260903233625 81 248 6.0 11.0 0.00 0.00 0.00 18 1009.5
20260903232636 81 221 5.0 10.0 0.00 0.00 0.00 18 1009.6
20260903231627 81 238 5.0 9.0 0.00 0.00 0.00 18 1009.7
20260903230621 81 227 6.0 10.0 0.00 0.00 0.00 18 1009.8
20260903225624 81 236 5.0 10.0 0.00 0.00 0.00 17 1010.0
20260903224615 81 251 6.0 11.0 0.00 0.00 0.00 18 1010.0
20260903223626 80 159 6.0 12.0 0.00 0.00 0.00 18 1010.0
20260903222622 80 195 5.0 8.0 0.00 0.00 0.00 19 1010.2
20260903221613 80 220 7.0 11.0 0.00 0.00 0.00 18 1010.4
20260903220625 79 232 4.0 10.0 0.00 0.00 0.00 19 1010.5
20260903215626 80 184 3.0 11.0 0.00 0.00 0.00 18 1010.6
20260903214621 79 153 8.0 12.0 0.00 0.00 0.00 18 1010.8
20260903213632 79 221 5.0 9.0 0.00 0.00 0.00 19 1010.9
20260903212623 79 187 6.0 11.0 0.00 0.00 0.00 19 1011.1
20260903211618 79 180 8.0 12.0 0.00 0.00 0.00 20 1011.3
20260903210628 78 138 4.0 17.0 0.00 0.00 0.00 19 1011.4
20260903205648 78 261 6.0 15.0 0.00 0.00 0.00 18 1011.7
20260903204619 78 188 4.0 19.0 0.00 0.00 0.00 19 1011.8
20260903203615 78 242 6.0 12.0 0.00 0.00 0.00 18 1012.0
20260903202626 78 231 7.0 11.0 0.00 0.00 0.00 18 1012.2
20260903201617 77 166 7.0 11.0 0.00 0.00 0.00 19 1012.2
20260903200628 77 159 5.0 11.0 0.00 0.00 0.00 20 1012.3
20260903195612 76 211 2.0 10.0 0.00 0.00 0.00 23 1012.4
20260903194643 76 144 8.0 15.0 0.00 0.00 0.00 22 1012.7
20260903193631 76 257 5.0 9.0 0.00 0.00 0.00 23 1012.7
20260903192640 75 253 6.0 10.0 0.00 0.00 0.00 25 1012.9
20260903191630 75 239 6.0 10.0 0.00 0.00 0.00 23 1013.1
20260903190624 75 217 3.0 5.0 0.00 0.00 0.00 26 1013.2
20260903185625 75 271 3.0 5.0 0.00 0.00 0.00 26 1013.3
20260903184614 74 298 2.0 5.0 0.00 0.00 0.00 27 1013.4
20260903183623 73 329 2.0 5.0 0.00 0.00 0.00 26 1013.5
20260903182636 72 16 3.0 7.0 0.00 0.00 0.00 27 1013.7
20260903181622 71 350 2.0 6.0 0.00 0.00 0.00 26 1013.8
20260903180640 71 304 2.0 4.0 0.00 0.00 0.00 26 1014.0
20260903175615 70 314 2.0 6.0 0.00 0.00 0.00 28 1014.1
20260903174624 69 344 3.0 5.0 0.00 0.00 0.00 29 1014.2
20260903173618 69 252 2.0 6.0 0.00 0.00 0.00 30 1014.2
20260903172628 68 308 3.0 5.0 0.00 0.00 0.00 31 1014.2
20260903171638 68 295 3.0 5.0 0.00 0.00 0.00 33 1014.3
20260903170627 67 319 3.0 8.0 0.00 0.00 0.00 35 1014.4
20260903165626 67 288 4.0 6.0 0.00 0.00 0.00 36 1014.4
20260903164620 66 287 2.0 5.0 0.00 0.00 0.00 40 1014.4
20260903163629 65 329 2.0 5.0 0.00 0.00 0.00 37 1014.5
20260903162620 64 5 3.0 5.0 0.00 0.00 0.00 38 1014.5
20260903161615 63 323 2.0 4.0 0.00 0.00 0.00 40 1014.5
20260903160624 62 331 2.0 5.0 0.00 0.00 0.00 43 1014.5
20260903155624 62 320 2.0 5.0 0.00 0.00 0.00 45 1014.5
20260903154615 61 318 1.0 3.0 0.00 0.00 0.00 44 1014.6
20260903153628 60 313 1.0 4.0 0.00 0.00 0.00 45 1014.6
20260903152617 60 287 2.0 4.0 0.00 0.00 0.00 42 1014.8
20260903151648 60 318 3.0 6.0 0.00 0.00 0.00 45 1014.5
20260903150617 59 331 2.0 3.0 0.00 0.00 0.00 46 1014.6
20260903145621 58 331 2.0 4.0 0.00 0.00 0.00 47 1014.7
20260903144632 57 11 1.0 3.0 0.00 0.00 0.00 46 1014.7
20260903143621 56 28 0.0 2.0 0.00 0.00 0.00 48 1014.7
20260903142630 54 28 1.0 3.0 0.00 0.00 0.00 47 1014.7
20260903141625 52 28 2.0 3.0 0.00 0.00 0.00 51 1014.6
20260903140616 50 26 1.0 3.0 0.00 0.00 0.00 54 1014.6
20260903135616 49 25 2.0 4.0 0.00 0.00 0.00 57 1014.4
20260903134626 48 17 3.0 4.0 0.00 0.00 0.00 58 1014.3
20260903133620 49 331 2.0 3.0 0.00 0.00 0.00 59 1014.3
20260903132630 49 331 1.0 4.0 0.00 0.00 0.00 58 1014.0
20260903131620 50 78 0.0 2.0 0.00 0.00 0.00 52 1013.8
20260903130631 49 78 1.0 2.0 0.00 0.00 0.00 52 1013.8
20260903125616 49 78 1.0 3.0 0.00 0.00 0.00 54 1013.7
20260903124626 49 78 1.0 3.0 0.00 0.00 0.00 56 1013.7
20260903123617 49 78 1.0 3.0 0.00 0.00 0.00 56 1013.7
20260903122612 48 78 0.0 3.0 0.00 0.00 0.00 56 1013.6
20260903121622 48 78 2.0 3.0 0.00 0.00 0.00 57 1013.7
20260903120613 48 78 1.0 3.0 0.00 0.00 0.00 56 1013.5
20260903115612 48 78 2.0 4.0 0.00 0.00 0.00 54 1013.3
20260903114623 49 78 3.0 3.0 0.00 0.00 0.00 53 1013.2
20260903113616 50 78 0.0 3.0 0.00 0.00 0.00 51 1013.3
20260903112627 51 78 1.0 3.0 0.00 0.00 0.00 50 1013.3
20260903111638 52 77 1.0 3.0 0.00 0.00 0.00 48 1013.4
20260903110627 53 77 1.0 2.0 0.00 0.00 0.00 49 1013.2
20260903105623 54 78 0.0 3.0 0.00 0.00 0.00 44 1013.0
20260903104612 53 78 2.0 4.0 0.00 0.00 0.00 44 1012.9
20260903103623 54 78 0.0 5.0 0.00 0.00 0.00 45 1012.8
20260903102619 55 26 0.0 4.0 0.00 0.00 0.00 44 1012.8
20260903101630 55 129 0.0 6.0 0.00 0.00 0.00 43 1012.7
20260903100621 54 114 3.0 7.0 0.00 0.00 0.00 44 1012.8
20260903095643 52 53 3.0 3.0 0.00 0.00 0.00 48 1012.9
20260903094617 53 53 3.0 3.0 0.00 0.00 0.00 50 1013.0
20260903093628 53 53 2.0 3.0 0.00 0.00 0.00 50 1013.0
20260903092620 54 53 3.0 4.0 0.00 0.00 0.00 49 1012.8
20260903091631 56 48 1.0 3.0 0.00 0.00 0.00 47 1012.7
20260903090627 56 48 0.0 3.0 0.00 0.00 0.00 46 1012.5
20260903085628 57 47 3.0 6.0 0.00 0.00 0.00 46 1012.4
20260903084640 58 265 2.0 3.0 0.00 0.00 0.00 47 1012.4
20260903083630 59 273 3.0 6.0 0.00 0.00 0.00 46 1012.5
20260903082625 59 268 4.0 7.0 0.00 0.00 0.00 44 1012.4
20260903081615 59 153 3.0 5.0 0.00 0.00 0.00 41 1012.4
20260903080626 59 153 1.0 3.0 0.00 0.00 0.00 43 1012.4
20260903075627 59 153 1.0 2.0 0.00 0.00 0.00 43 1012.5
20260903074623 59 153 0.0 2.0 0.00 0.00 0.00 44 1012.4
20260903073615 59 153 2.0 7.0 0.00 0.00 0.00 44 1012.3
20260903072624 59 213 2.0 4.0 0.00 0.00 0.00 41 1012.4
20260903071613 59 123 2.0 3.0 0.00 0.00 0.00 41 1012.3
20260903070629 59 123 2.0 3.0 0.00 0.00 0.00 40 1012.2
20260903065650 58 121 2.0 3.0 0.00 0.00 0.00 40 1012.2
20260903064620 58 121 2.0 3.0 0.00 0.00 0.00 41 1012.2
20260903063632 58 121 3.0 4.0 0.00 0.00 0.00 42 1012.4
20260903062628 58 115 1.0 4.0 0.00 0.00 0.00 41 1012.2
20260903061637 59 100 2.0 3.0 0.00 0.00 0.00 40 1012.1
20260903060614 61 100 2.0 4.0 0.00 0.00 0.00 36 1011.9
20260903055616 61 84 0.0 5.0 0.00 0.00 0.00 33 1011.8
20260903054627 62 36 2.0 3.0 0.00 0.00 0.00 34 1011.7
20260903053622 62 34 2.0 4.0 0.00 0.00 0.00 33 1011.7
20260903052652 62 12 3.0 5.0 0.00 0.00 0.00 33 1011.8
20260903051621 63 22 2.0 8.0 0.00 0.00 0.00 33 1012.0
20260903050617 64 12 4.0 10.0 0.00 0.00 0.00 33 1012.2
20260903045617 64 5 5.0 12.0 0.00 0.03 0.00 31 1012.1
20260903044649 64 5 3.0 11.0 0.00 0.03 0.00 32 1012.2
20260903043618 65 15 5.0 10.0 0.00 0.03 0.00 32 1012.2
20260903042628 66 17 4.0 9.0 0.00 0.03 0.00 30 1012.1
20260903041643 67 355 3.0 9.0 0.00 0.03 0.00 28 1011.9
20260903040613 68 19 3.0 10.0 0.00 0.03 0.00 27 1011.9
20260903035631 68 10 6.0 13.0 0.00 0.03 0.00 27 1011.8
20260903034622 68 17 6.0 10.0 0.00 0.03 0.00 27 1011.7
20260903033616 68 329 4.0 9.0 0.00 0.03 0.00 26 1011.4
20260903032626 68 22 3.0 6.0 0.00 0.03 0.00 26 1011.4
20260903031618 67 14 3.0 6.0 0.00 0.03 0.00 27 1011.2
20260903030629 68 10 2.0 5.0 0.00 0.03 0.00 26 1011.1
20260903025653 69 61 2.0 5.0 0.00 0.03 0.00 26 1011.1
20260903024621 70 19 0.0 12.0 0.00 0.03 0.00 21 1011.1
20260903023651 71 95 6.0 10.0 0.00 0.03 0.00 19 1010.7
20260903022619 71 91 8.0 10.0 0.00 0.03 0.00 19 1010.6
20260903021631 70 85 7.0 9.0 0.00 0.03 0.00 19 1010.6
20260903020621 70 105 7.0 8.0 0.00 0.03 0.00 20 1010.5
20260903015622 70 99 4.0 7.0 0.00 0.03 0.00 21 1010.6
20260903014631 71 103 2.0 6.0 0.00 0.03 0.00 23 1010.6
20260903013625 72 130 3.0 4.0 0.00 0.03 0.00 23 1010.6